Regional Weather Roundup
Issued by NWS Grand Forks, ND

Home | Current Version | Previous Version | Text Only | Print | Product List | Glossary Off
Versions: 1 2 3 4 5 6 7 8 9 10 11 12 13 14 15 16 17 18 19 20 21 22 23 24 25 26 27 28 29 30 31 32 33 34 35 36 37 38 39 40 41 42 43 44 45 46 47 48 49 50

000
ASUS43 KFGF 271131
RWRFGF
PRAIRIE TO PINES  WEATHER ROUNDUP
NATIONAL WEATHER SERVICE EASTERN NORTH DAKOTA/GRAND FORKS ND
500 AM CST THU NOV 27 2014

 **SATELLITE DATA USED TO AUGMENT SKY COVER AT AUTOMATED STATIONS**
 *****  WEATHER ACROSS EASTERN NORTH DAKOTA  *****

CITY           SKY/WX    TMP DP  RH WIND       PRES   REMARKS
GRAND FORKS    PTCLDY   -16 -20  82 SW5       30.54S WCI -29
GRAND FRKS AFB PTCLDY   -15 -21  76 SW6       30.52F WCI -30
GRAND FRKS NWS   N/A    -13 N/A N/A MISG        N/A
DEVILS LAKE    PTCLDY    -6 -17  59 S6        30.39F WCI -18
FARGO          PTCLDY   -13 -19  75 W6        30.56R WCI -27
WAHPETON ARPT  MOSUNNY  -13 -18  77 W5        30.56R WCI -25
$$

 ***** WEATHER ACROSS CENTRAL AND WESTERN NORTH DAKOTA  *****

CITY           SKY/WX    TMP DP  RH WIND       PRES   REMARKS
BISMARCK       CLOUDY    -7 -12  79 NE7       30.41F WCI -21
MINOT          PTCLDY   -12 -18  74 CALM      30.34F
JAMESTOWN      MOCLDY   -22 -27  77 CALM      30.45F
MINOT AFB      CLOUDY    -9 -15  77 S5        30.34F WCI -21
GARRISON         N/A      8   5  87 S12       30.32F WCI  -7
WILLISTON      CLOUDY     8   4  83 NE5       30.24F WCI   0
DICKINSON      CLOUDY    12   8  84 S16       30.19F WCI  -5
HETTINGER      CLOUDY    11   9  92 SE10      30.24F WCI  -3
$$

 *****  OTHER AIRPORT OBSERVATIONS IN OUR AREA  *****

CITY           SKY/WX    TMP DP  RH WIND       PRES   REMARKS
WALHALLA         N/A    -13 -17  84 SW3       30.48F
GRAFTON AIRPOR FAIR     -13 -18  77 S3        30.53S
VALLEY CITY AR FAIR     -18 -24  76 S3        30.47F
CANDO          FAIR     -17 -20  83 S5        30.42S WCI -29
CAVALIER APRT  FAIR     -17 -20  83 S3        30.50F
GWINNER        SUNNY    -15 -22  70 W7        30.52S WCI -31
SHEYENNE NWR     N/A    -18 -26  67 CALM      29.95S
ROLLA          FAIR     -11 -17  77 SW9       30.36S WCI -29
 ***** THE ABOVE OBSERVATIONS ARE NON NWS ARE NOT QUALITY
       CONTROLLED AND MAY MIS-REPORT RAIN FOR SNOW...
$$

  *****  WEATHER ACROSS NORTHERN MINNESOTA  *****

CITY           SKY/WX    TMP DP  RH WIND       PRES   REMARKS
FLAG ISLAND    PTCLDY   -17 -20  83 CALM      30.47F
WARROAD        PTCLDY   -17 -22  76 CALM      30.48F
ROSEAU         FAIR     -15 -20  76 CALM      30.49S
HALLOCK        MOCLDY   -17 -22  76 S5        30.50F WCI -29
THF RVR FALLS  MOCLDY   -15 -20  76 CALM      30.48S
BAUDETTE       MOCLDY   -14 -19  79 W3        30.47R
WASKISH        MOCLDY   -11 -15  84 CALM      30.47S
CROOKSTON      PTCLDY   -15 -18  84 SW3       30.54S
STEPHEN NDAWN    N/A    -17 -22  76 S3          N/A
GREENBUSH NDAW   N/A    -15 -18  84 S3          N/A
$$
  *****  WEATHER ACROSS CENTRAL AND WEST MINNESOTA  *****

CITY           SKY/WX    TMP DP  RH WIND       PRES   REMARKS
FOSSTON        MOCLDY   -20 -27  69 CALM      30.48S
BEMIDJI        NOT AVBL
PARK RAPIDS    PTCLDY   -15 -22  70 NW3       30.45S
ELBOW LAKE     NOT AVBL
WADENA         PTCLDY   -11 -15  84 CALM      30.46S
DETROIT LAKES  MOCLDY    -9 -15  77 CALM      30.47F
MOORHEAD       PTCLDY   -11 -15  84 CALM      30.55R
FERGUS FALLS   PTCLDY   -13 -18  77 W5        30.56R WCI -25
MORRIS MN      FAIR     -11 -17  77 W5        30.51S WCI -23
STAPLES        PTCLDY    -9 -15  77 CALM      30.46F
$$
  *****  WEATHER ELSEWHERE ACROSS MINNESOTA  *****

CITY           SKY/WX    TMP DP  RH WIND       PRES   REMARKS
DULUTH         PTCLDY    -7 -13  75 NW7       30.39S WCI -21
INTRNTL FALLS  PTCLDY   -16 -22  74 W3        30.45F
ELY            CLEAR    -13 -18  77 NW3       30.40R
CLOQUET        CLEAR     -8 -13  77 NW8       30.41F WCI -23
WHEATON        PTCLDY    -9 -15  77 W5        30.57R WCI -21
BRAINERD       PTCLDY    -7 -10  87 NW6       30.47S WCI -20
HIBBING        PTCLDY    -8 -14  74 N6        30.42S WCI -21
ALEXANDRIA     PTCLDY    -5 -10  79 CALM      30.46F
SAINT CLOUD    CLEAR     -3  -9  75 NW8       30.48S WCI -18
MINNEAPOLIS    CLEAR      1  -5  75 N9        30.48R WCI -14
$$

  *****  WEATHER ACROSS SOUTH DAKOTA  *****

CITY           SKY/WX    TMP DP  RH WIND       PRES   REMARKS
SIOUX FALLS    PTCLDY    -4 -10  75 N5        30.49F WCI -15
BROOKINGS      NOT AVBL
WATERTOWN      MOCLDY   -10 -14  82 N3        30.46R
HURON          MOCLDY    -5  -9  83 CALM      30.51F
SISSETON         N/A    -12 -17  78 CALM      30.53S
ABERDEEN       MOCLDY   -12 -17  78 CALM      30.52S
MITCHELL       MOCLDY     1  -4  79 CALM      30.53R
PIERRE         CLOUDY    12   8  84 E13       30.37F WCI  -3
MOBRIDGE       CLOUDY     1  -5  75 E12       30.37F WCI -16
RAPID CITY     CLOUDY    20  17  88 SE8       30.18F WCI  10
$$

  *****  SOME WEATHER IN NEARBY STATES *****

CITY           SKY/WX    TMP DP  RH WIND       PRES   REMARKS
GLASGOW MT     LGT SNOW  20  15  81 E18       30.06F WCI   5
GREAT FALLS MT CLOUDY    39  32  76 SW14      29.87F
CHEYENNE WY    PTCLDY    42  21  43 W15G24    30.19F
SCOTTSBLUFF NE CLOUDY    12   9  87 N3        30.19F
OMAHA NE       MOCLDY    17  12  80 N13       30.52S WCI   4
DES MOINES IA  PTCLDY    11   3  70 NW15      30.48R WCI  -5
DAVENPORT IA   CLOUDY    25  19  78 NW7       30.35R WCI  17
CHICAGO IL     FLURRIES  24  18  77 NW8       30.24R WCI  15
EAU CLAIRE WI  CLEAR      3  -4  72 N8        30.40R WCI -10
LA CROSSE WI   CLOUDY    17   9  70 NW16      30.38R WCI   2
$$

  *****  SOME NATIONAL WEATHER *****

CITY           SKY/WX    TMP DP  RH WIND       PRES   REMARKS
LA GUARDIA NY  CLOUDY    37  30  75 NW9       29.95R
RALEIGH NC     LGT RAIN  41  38  89 E7        30.00F
ATLANTA GA     PTCLDY    41  29  62 W9        30.15R
NEW ORLEANS LA CLEAR     51  44  77 NW6       30.34R
OKLAHOMA CITY  CLEAR     33  23  66 NE10      30.47F WCI  25
ALBUQUERQUE NM PTCLDY    39  23  52 NE6       30.44F
SALT LAKE CITY PTCLDY    45  27  49 SE14      30.30F
LOS ANGELES CA CLEAR     58  28  32 E5        30.09F
BOISE ID       CLOUDY    43  37  79 CALM      30.16F
SEATTLE WA     CLOUDY    55  45  68 S17G37    29.87S
$$

*** WEATHER ACROSS MANITOBA...SASKATCHEWAN AND ONTARIO ***
                ***ONTARIO***

CITY           SKY/WX    TMP DP  RH WIND       PRES   REMARKS
GERALDTON      CLEAR    -20 -27  69 NW3       30.32F
THUNDER BAY    CLEAR     -9 -15  77 SW6       30.43S WCI -23
SIOUX LOOKOUT  CLEAR    -17 -22  76 NW2       30.40S
TORONTO        FLURRIES  30  23  74 S5        30.04S
BIG TROUT LK   CLEAR    -22 -26  83 SW3       30.33F
PICKLE LAKE    PTCLDY   -20 -27  69 W8        30.34  WCI -39
DRYDEN         CLEAR    -18 -22  83 W8        30.41S WCI -37
KENORA         CLEAR    -13 -18  77 NW5       30.43F WCI -25
$$
                *** MANITOBA***

CITY           SKY/WX    TMP DP  RH WIND       PRES   REMARKS
BRANDON        CLEAR    -17 -22  76 W3        30.41F
DAUPHIN        CLEAR     -9 -15  77 W6        30.38F WCI -23
ISLAND LAKE    CLEAR    -17 -22  76 SW6       30.35F WCI -31
PILOT MOUND      N/A    -17 -22  76 S7          N/A  WCI -33
THE PAS        CLEAR    -17 -20  83 S6        30.28F WCI -31
THOMPSON       MOCLDY   -17 -22  76 SW6       30.21  WCI -31
WINNIPEG       CRYSTALS -15 -22  70 S6        30.50F WCI -29
LYNN LAKE      FLURRIES  -2  -6  84 W6        30.12S WCI -14
CHURCHILL      FLURRIES  -2  -8  78 W16       30.07F WCI -23
GILLAM         CLEAR    -17 -22  76 SW7       30.20F WCI -33
$$
                ***SASKATCHEWAN***

CITY           SKY/WX    TMP DP  RH WIND       PRES   REMARKS
ESTEVAN        FLURRIES N/A N/A N/A E8          N/A
KINDERSLEY     CLOUDY    14  10  85 E8        30.03F WCI   3
LLOYDMINSTER   CLOUDY    12  10  92 E8        30.06F WCI   1
PRINCE ALBERT  FLURRIES   0  -4  85 NE2       30.19F
REGINA         FLURRIES   9   5  85 SE15      30.20F WCI  -8
YORKTON        CLOUDY    -4  -9  77 SE5       30.24F WCI -15
N. BATTLEFORD  CLOUDY     5   3  92 E8        30.14F WCI  -8
LA RONGE       FLURRIES   0  -4  85 NW5       30.19F WCI -10
SASKATOON      MOCLDY     3   1  92 NE6       30.16F WCI  -8
SWIFT CURRENT  LGT SNOW  21  21 100 SE14G21   30.02F WCI   8
$$
NOTE: THESE ARE AUTOMATED STATIONS WITH LIMITED QUALITY CONTROL
      "FAIR" INDICATES FEW OR NO CLOUDS BELOW 12,000 FEET WITH NO
      SIGNIFICANT WEATHER AND/OR OBSTRUCTIONS TO VISIBILITY.
      SKY/WX - SKY CONDITION AND SIGNIFICANT WEATHER.
      TMP - AIR TEMPERATURE.    DP   - DEWPOINT TEMPERATURE.
      RH  - RELATIVE HUMIDITY.  PRES - PRESSURE.
      HX  - HEAT INDEX.         WCI  - WIND CHILL INDEX.
$



USA.gov is the U.S. government's official web portal to all federal, state and local government web resources and services.